Погода в Лениногорске

Погода в Лениногорске : погода сейчас, прогноз погоды и архив. Всё, что Вы хотите узнать о погоде в Лениногорске!

Поиск расширенной информации на нашем сайте:

Другие новости

Новости СМИ2

Главная страница сайта

Новости сайта

03.07.2017

Напоминаем, что на нашем специализированном сайте Метеоцентр.Азия вы можете получить высокодетализированные автоматические прогнозы погоды по пунктам России, СНГ и мира в авиационном формате (включающие направление и скорость ветра, видимость, явления погоды, количество и форму облачности, нижнюю и верхнюю границу облачности).


Погода в Лениногорске - сегодня

Время (UTC), дата Ветер
(°,м/с) 
Видим.   Явления Облачность Т
(°С)
Тd
(°С)
f(%) Тe
(°С)
Pmin
(гПа)
dP
(гПа)
Po
(мм)
O2
(г/м3)
Тmin Tmax R s Состояние
почвы
03 19.08.17 220 (ЮЗ) 20000 м    9/9 1000 м кучево-дожд. 
[Cb calv]
+12.8 +9.8 82 +16  1018.1  0.1  694  265         
06 19.08.17 240 (ЮЗ) 20000 м    9/9 1000 м кучево-дожд. 
[Cb calv]
+14 +9.3 73 +16  1017.5  -0.2  694  264  +6.5       
09 19.08.17 200 (Ю) 4000 м  слаб. ливневой дождь  10/10 600 м кучево-дожд. 
[Cb calv]
+11 +8.7 86 +13  1019.3  0.8  695  267           
12 19.08.17 240 (ЮЗ) 20000 м  {ливн. осадки}  9/5 1000 м кучево-дожд., средняя, верхняя 
[Cb calv|Ac trans|Ci fib]
+13 +8.8 76 +15  1019.1  0.4  695  266           
15 19.08.17 100 (В) н/о    3/0 верхняя 
[Ci fib]
+9.1 +5.5 78 +10  1022.5  1.8  696  270    +14.8     
18 19.08.17 090 (В) н/о    ясно 
+4.6 +2 83 +5  1024.6  0.4  697  276    +14.8     
21 19.08.17 080 (В) н/о    ясно 
+3 +0.5 84 +4  1025.1  -0.1  696  277           
00 20.08.17 090 (В) 20000 м    3/0 верхняя 
[Ci fib]
+3.6 +0.9 82 +4  1024.9  696  277           
03 20.08.17 100 (В) 20000 м    3/0 верхняя 
[Ci fib]
+9.2 +4.9 74 +10  1023.4  0.5  697  271           
06 20.08.17 060 (СВ) 20000 м    8/8 1000 м кучево-дожд. 
[Cb calv]
+14.8 +3.3 46 +15  1020.8  -0.6  696  266  +2.7         
09 20.08.17 090 (В) 20000 м    6/6 1000 м кучево-дожд. 
[Cb calv]
+16.4 +1.6 37 +18  1019.1  -1.1  696  264           
12 20.08.17 130 (ЮВ) 20000 м    6/6 1000 м кучево-дожд. 
[Cb calv]
+17.2 +1.7 35 +18  1018.4  -0.4  695  263           
15 20.08.17 100 (В) н/о    8/0 средняя 
[Ac trans]
+12.6 +3.6 54 +14  1020.9  0.9  696  267    +18.4       
18 20.08.17 тихо ()   н/о    ясно 
+4.4 +0.7 77 +4  1024.9  0.9  697  276    +18.4       
21 20.08.17 090 (В) н/о    ясно 
+3.2 +0.1 80 +4  1025  -0.2  696  277           
00 21.08.17 тихо ()   20000 м    ясно 
+2.6 +0 83 +3  1025.3  0.1  697  278           
03 21.08.17 тихо ()   20000 м    3/0 верхняя 
[Ci fib]
+11.2 +4.4 63 +11  1022.9  0.6  697  269           
06 21.08.17 020 (С) 20000 м    6/4 1000 м верхняя 
[Cu med, cong|Ci fib]
+16.7 +3.3 41 +17  1020.5  -0.6  697  264  +2.3         
09 21.08.17 030 (СВ) 20000 м    8/8 1000 м 
[Cu med, cong]
+19 +3.4 35 +20  1018.8  -0.8  696  262           
12 21.08.17 тихо ()   20000 м    6/6 1000 м 
[Cu med, cong]
+14.6 +5.2 53 +15  1020.3  0.1  696  265           
15 21.08.17 100 (В) н/о    6/0 средняя 
[Ac trans]
+11.2 +6.7 74 +12  1022.1  0.6  696  268    +21       
18 21.08.17 090 (В) н/о    ясно 
+5.1 +1.7 79 +6  1025  0.6  697  275    +21       
21 21.08.17 тихо ()   н/о    ясно 
+3.1 +0.3 82 +3  1025.1  -0.6  696  277           
00 22.08.17 100 (В) 20000 м    ясно 
+2.4 -0.5 81 +3  1025.7  0.3  697  278           
03 22.08.17 090 (В) 20000 м    ясно 
+12.6 +5.6 62 +14  1021.9  697  267           
Время (UTC), дата Ветер
(°,м/с) 
Видим.   Явления Облачность Т
(°С)
Тd
(°С)
f(%) Тe
(°С)
Pmin
(гПа)
dP
(гПа)
Po
(мм)
O2
(г/м3)
Тmin Tmax R s Состояние
почвы

Для получения пояснительной информации подведите курсор к названию столбца.

ПОГОДА в Лениногорске - архив

Всё, что Вы хотите узнать о погоде в Лениногорске - удобно и подробно!

Выберите нужную дату (начиная с 1 января 2015* года) и нажмите кнопку "Найти".
Будут отображены архивные сводки погоды по пункту Лениногорск, начиная с указанной даты.


Отображать данные в формате CSV (для использования в таблицах Excel)


Внимание! Наш архив погоды предназначен исключительно для личного некоммерческого использования в познавательных целях. Если Вам необходимы официальные справки о состоянии погоды (для производственных, юридических, коммерческих и т.п. целей), обращайтесь в органы Росгидромета.

*Примечание: данная дата относится к архиву по метеостанциям СССР (Россия, СНГ, Балтия).
Архив по метеостанциям Зарубежной Европы и Азии (кроме Китая) хранится 10 дней, по другим регионам земного шара (Китай, Африка, Америка, Австралия, Океания) - 1 день.

Лениногорск - район местоположения метеостанции


Название, широта, долгота, высота метеостанции:
Лениногорск 50.3°ш. 83.6°д. 811 м над ур. моря [Казахстан]

Дополнительная информация

В oтличие oт бoльшинства пoгoдных сайтoв мы публикуем пoдрoбную метеoинфoрмацию в детальнoм прoфессиoнальнoм фoрмате.

Характеристики температуры и влажнoсти вoздуха измеряются на высoте 2 м в тени вдали oт зданий и деревьев.
Скoрoсть ветра измеряется на высoте 10 м (на урoвне рoста челoвека скoрoсть ветра ниже в 1.5-2 раза). Если метеoстанция нахoдится в гoрoде или в лесу, тo скoрoсть ветра занижена на 2-4 м/с пo сравнению с oткрытым местoм. Скoрoсть ветра над акватoриями крупных рек и oзёр, а также на вершинах хoлмoв на 2-5 м/с выше, чем в oбычных услoвиях.
Атмoсфернoе давление в разных тoчках местнoсти мoжет значительнo oтличаться oт давления на метеoстанции, в зависимoсти oт услoвий рельефа (при пoдъёме на 10 м давление пoнижается примернo на 1 мм рт.ст.).